STARLINK-35972, 66638

Orbit data source: Space-Track

STARLINK-35972, 66638 is a payload satellite owned by SpaceX/Seattle (US) in LEO that was launched on Sun, 23 Nov 2025 UTC via an FALCON 9 launch vehicle from the Air Force Western Test Range (AFWTR). Payload-class satellites include a variety of spacecraft equipped with specific instruments for various scientific and technological missions. These include communications satellites like Starlink; space stations such as the ISS; scientific satellites like the Hubble; Earth observation satellites from companies like Planet Labs, Umbra, and HawkEye 360; GPS; miniature CubeSats for education and research; and military/defense satellites.

Loading next visibility...
Identifier
66638, 2025-271X
Orbit
LEO
Country
Flag of USUS
Related business
Manufacturer
SpaceX/Seattle
Mission
Operational Commercial Communications
Bus & Motor
STARLINK V2MO, Unknown motor
Mass
575 kg wet, ~530 kg dry
Launch date (UTC)
2025-11-23 (10 months ago)
Launch vehicle
FALCON 9
Launch site
Air Force Western Test Range (AFWTR)
Object type
Payload
Rocket body
Debris
Shape & HBR
Box + 1 Pan, 17.7 m
Radar Cross Section
41.120 m², Large (>1 m²)

Expand to show TLE details & history
Last TLE update: 14 hours ago

TLE from 14 hours ago
0 STARLINK-35972
1 66638U 25271X   26265.38316464  .00020126  00000-0  60507-3 0  9994
2 66638  53.1608 304.7337 0001479  88.7255 271.3917 15.34406667 47707
Epoch: 2026-09-22T09:11Z
TLE epoch observation values (Epoch: 2026-09-22T09:11:45.424Z)
Latitude
-0.00005°
Longitude
165.54497°
Altitude
463.56 km
Speed
7.636 km/s
True Right ascension
20h 18m 56s
True Declination
0° 00' 00"
Sunlit
Object was in full shadow at epoch
Visualization orbit readout
Latitude
Unknown
Longitude
Unknown
Altitude
Unknown
Speed
Unknown
Apparent Right ascension
Unknown
Apparent Declination
Unknown
Sunlit
N/A
Visualization observer readout
Local Sidereal Time
16:26:30
Azimuth
Unknown
Elevation
Unknown
Doppler factor
Unknown
Orbital elements
Apogee altitude
463.952 km
Perigee altitude
461.928 km
Semi-major axis
6,841.077 km
Eccentricity
0.00015
Inclination
53.1608°
RAAN
304.7337°
Arg. of periapsis
88.7255°
True anomaly
271.37476°
Mean anomaly
271.3917°
Eccentric anomaly
271.38323°
Mean motion
3.8358 °/min
Orbital period
93.85 mins
BSTAR
0.00060507
Loading maneuver chart data...
Computing Atmospheric mass density...
Loading historical data...
Loading historical data...
Loading historical data...
Loading historical data...
Loading historical data...
Loading historical data...
Loading historical data...

Documentation

Showing up to 5 results
|